Regional Weather Roundup
Issued by NWS

Home | Current Version | Previous Version | Graphics & Text | Print | Product List | Glossary On
Versions: 1 2 3 4 5 6 7 8 9 10 11 12 13 14 15 16 17 18 19 20 21 22 23 24 25 26 27 28 29 30 31 32 33 34 35 36 37 38 39 40 41 42 43 44 45 46 47 48 49 50
000
ASUS43 KIND 250009
RWRIN

WEATHER ROUNDUP FOR INDIANA
NATIONAL WEATHER SERVICE INDIANAPOLIS IN
800 PM EDT THU APR 24 2014

NOTE: "FAIR" INDICATES FEW OR NO CLOUDS BELOW 12,000 FEET WITH NO
SIGNIFICANT WEATHER AND/OR OBSTRUCTIONS TO VISIBILITY.

* - STATION DOES NOT REPORT WEATHER SUCH AS PRECIPITATION OR FOG.

+ - STATION NOT QUALITY CONTROLLED BY THE NATIONAL WEATHER SERVICE.
    USE DATA WITH CAUTION...ESPECIALLY DEWPOINT AND RELATIVE
    HUMIDITY OBSERVATIONS.

INZ001>003-010>013-019-020-250100-
NORTHWEST INDIANA

CITY           SKY/WX    TMP DP  RH WIND       PRES   REMARKS
GARY /AIRPORT/ CLOUDY    63  27  25 SE13G24   29.74S
LA PORTE +     CLOUDY    57  21  24 SE17G24   29.78F
6HR MIN TEMP:  57; 6HR MAX TEMP:  60;

MICHIGAN CITY+ CLOUDY    57  21  24 SE13G23   29.76S
MONTICELLO +   CLOUDY    60  31  33 SE12G18   29.75F
RENSSELAER +   CLOUDY    61  28  29 E16G25    29.73F
VALPARAISO     CLOUDY    58  23  26 SE18G24   29.74F
6HR MIN TEMP:  58; 6HR MAX TEMP:  62;


$$

LMZ046-743>745-250100-
SOUTHERN LAKE MICHIGAN

STATION/POSITION TIME  TEMP WIND        PRES
                       AIR  DIR/SP/G
                 (UTC) (F)  (DEG/KT/KT) (MB)
MICHIGAN CITY    0000   59  110/ 19/ 26   N/A

$$

INZ004-005-014>016-021>024-250100-
NORTH CENTRAL INDIANA

CITY           SKY/WX    TMP DP  RH WIND       PRES   REMARKS
ELKHART        CLOUDY    55  23  28 SE20      29.81F
GOSHEN         CLOUDY    57  26  30 SE14      29.82F
6HR MIN TEMP:  57; 6HR MAX TEMP:  61; 6HR PCP: TRACE;

LOGANSPORT +   CLOUDY    59  27  29 E16       29.78F
PERU/GRISSOM   CLOUDY    59  27  29 E15       29.79F
6HR MIN TEMP:  59; 6HR MAX TEMP:  63;

ROCHESTER +    CLOUDY    61  23  23 SE14G23   29.79F
SOUTH BEND     CLOUDY    58  23  26 SE18G28   29.80F
6HR MIN TEMP:  58; 6HR MAX TEMP:  61; 6HR PCP: TRACE;

WARSAW +       CLOUDY    55  27  33 SE12G20   29.82F

$$

INZ006>009-017-018-025>027-250100-
NORTHEAST INDIANA

CITY           SKY/WX    TMP DP  RH WIND       PRES   REMARKS
ANGOLA *+      CLEAR     52  28  40 SE14      29.87F
AUBURN +       CLOUDY    54  25  32 E12       29.86F
FORT WAYNE     CLOUDY    56  24  29 E15       29.85F
6HR MIN TEMP:  56; 6HR MAX TEMP:  60; 6HR PCP: TRACE;


$$

INZ028-029-035-036-043>045-051>053-250100-
WEST CENTRAL INDIANA

CITY           SKY/WX    TMP DP  RH WIND       PRES   REMARKS
GREENCASTLE +  MOCLDY    64  37  36 SE9       29.75S
LAFAYETTE      CLOUDY    63  36  36 SE12      29.73F
6HR MIN TEMP:  60; 6HR MAX TEMP:  65;

TERRE HAUTE    MOCLDY    69  37  30 SE13      29.72F
6HR MIN TEMP:  66; 6HR MAX TEMP:  73;


$$

INZ030>032-037>040-046>048-054>057-064-065-250100-
CENTRAL INDIANA

CITY           SKY/WX    TMP DP  RH WIND       PRES   REMARKS
CP ATTERBURY + CLOUDY    64  37  36 SE8       29.78F
INDIANAPOLIS   CLOUDY    63  38  39 SE12      29.76F
6HR MIN TEMP:  59; 6HR MAX TEMP:  66;

-EAGLE CREEK   CLOUDY    64  35  34 SE12G22   29.77F
6HR MIN TEMP:  59; 6HR MAX TEMP:  66;

KOKOMO *+        N/A    N/A N/A N/A MISG        N/A
MARION +       CLOUDY    58  23  25 SE10      29.82F
MT COMFORT *+  CLOUDY    63  37  39 SE8       29.81S
SHELBYVILLE    CLOUDY    66  37  34 SE12      29.79F
6HR MIN TEMP:  65; 6HR MAX TEMP:  70;

ZIONSVILLE +   CLOUDY    64  31  29 SE12      29.78F
6HR MIN TEMP:  60; 6HR MAX TEMP:  67;


$$

INZ033-034-041-042-049-050-058-059-250100-
EAST CENTRAL INDIANA

CITY           SKY/WX    TMP DP  RH WIND       PRES   REMARKS
MUNCIE         CLOUDY    60  25  26 SE12      29.82F
6HR MIN TEMP:  60; 6HR MAX TEMP:  63;


$$

INZ060-061-067>069-081>083-085>088-250100-
SOUTHWEST INDIANA

CITY           SKY/WX    TMP DP  RH WIND       PRES   REMARKS
EVANSVILLE     MOCLDY    74  39  28 SE6       29.72S
6HR MIN TEMP:  71; 6HR MAX TEMP:  77;

HUNTINGBURG *+ CLOUDY    72  37  28 S9        29.74S
6HR MIN TEMP:  68; 6HR MAX TEMP:  73;

WASHINGTON +   CLOUDY    70  42  36 SE7       29.72S
6HR MIN TEMP:  69; 6HR MAX TEMP:  74;


$$

INZ062-063-066-070>080-084-089>092-250100-
SOUTH CENTRAL AND SOUTHEAST INDIANA

CITY           SKY/WX    TMP DP  RH WIND       PRES   REMARKS
BLOOMINGTON    MOCLDY    69  36  29 SE8       29.75F
6HR MIN TEMP:  64; 6HR MAX TEMP:  71;


$$




USA.gov is the U.S. government's official web portal to all federal, state and local government web resources and services.